TimeCDT,TemperatureF,Dew PointF,Humidity,Sea Level PressureIn,VisibilityMPH,Wind Direction,Wind SpeedMPH,Gust SpeedMPH,PrecipitationIn,Events,Conditions,WindDirDegrees,DateUTC
12:55 AM,31.5,20.8,65,30.28,10.0,WNW,17.3,27.6,N/A,,Overcast,290,2012-10-26 05:55:00
1:55 AM,31.1,21.4,67,30.28,10.0,WNW,23.0,28.8,N/A,,Overcast,300,2012-10-26 06:55:00
2:55 AM,30.6,19.6,64,30.29,10.0,WNW,18.4,-,N/A,,Overcast,290,2012-10-26 07:55:00
3:32 AM,30.2,21.2,69,30.30,10.0,WNW,19.6,28.8,N/A,,Overcast,290,2012-10-26 08:32:00
3:42 AM,30.2,21.2,69,30.30,10.0,WNW,25.3,29.9,N/A,,Overcast,290,2012-10-26 08:42:00
3:55 AM,30.0,21.6,71,30.30,10.0,WNW,19.6,27.6,N/A,,Overcast,290,2012-10-26 08:55:00
4:32 AM,30.2,23.0,75,30.31,10.0,WNW,17.3,-,N/A,,Overcast,290,2012-10-26 09:32:00
4:34 AM,30.2,23.0,75,30.30,10.0,WNW,19.6,-,N/A,,Overcast,290,2012-10-26 09:34:00
4:54 AM,30.2,21.2,69,30.31,10.0,WNW,18.4,24.2,N/A,,Overcast,290,2012-10-26 09:54:00
4:55 AM,29.5,21.9,73,30.31,10.0,WNW,20.7,27.6,0.00,,Overcast,290,2012-10-26 09:55:00
5:21 AM,28.4,21.2,74,30.32,10.0,WNW,20.7,-,N/A,,Mostly Cloudy,300,2012-10-26 10:21:00
5:55 AM,26.8,21.0,79,30.33,10.0,WNW,11.5,-,0.00,,Partly Cloudy,300,2012-10-26 10:55:00
6:55 AM,27.7,20.8,75,30.33,10.0,WNW,20.7,25.3,N/A,,Mostly Cloudy,290,2012-10-26 11:55:00
7:55 AM,25.3,19.8,79,30.35,10.0,WNW,15.0,-,N/A,,Clear,290,2012-10-26 12:55:00
8:55 AM,26.2,20.1,78,30.36,10.0,West,13.8,-,N/A,,Mostly Cloudy,280,2012-10-26 13:55:00
9:55 AM,28.2,20.3,72,30.36,10.0,West,17.3,-,N/A,,Overcast,280,2012-10-26 14:55:00
10:55 AM,30.4,20.7,67,30.36,10.0,WNW,13.8,-,N/A,,Overcast,290,2012-10-26 15:55:00
11:33 AM,32.0,21.2,64,30.35,10.0,West,18.4,24.2,N/A,,Overcast,280,2012-10-26 16:33:00
11:52 AM,32.0,21.2,64,30.35,10.0,West,16.1,-,N/A,,Overcast,280,2012-10-26 16:52:00
11:55 AM,32.0,20.3,62,30.35,10.0,West,19.6,-,N/A,,Overcast,280,2012-10-26 16:55:00
12:55 PM,32.7,20.1,60,30.34,10.0,WNW,16.1,-,N/A,,Overcast,290,2012-10-26 17:55:00
1:55 PM,33.3,18.9,56,30.32,10.0,WNW,23.0,27.6,N/A,,Mostly Cloudy,300,2012-10-26 18:55:00
2:55 PM,31.6,19.6,61,30.32,10.0,NW,23.0,-,0.00,,Overcast,310,2012-10-26 19:55:00
3:55 PM,32.0,19.9,61,30.32,10.0,WNW,21.9,-,0.00,Rain,Light Rain,290,2012-10-26 20:55:00
4:55 PM,31.5,20.7,64,30.31,10.0,WNW,17.3,-,0.00,,Overcast,300,2012-10-26 21:55:00
5:55 PM,30.7,16.9,56,30.31,10.0,WNW,15.0,-,N/A,,Overcast,300,2012-10-26 22:55:00
6:55 PM,25.5,18.5,75,30.32,10.0,WNW,8.1,-,N/A,,Clear,300,2012-10-26 23:55:00
7:55 PM,21.0,17.2,85,30.34,10.0,West,6.9,-,N/A,,Mostly Cloudy,260,2012-10-27 00:55:00
8:55 PM,19.9,16.3,86,30.34,10.0,West,6.9,-,N/A,,Scattered Clouds,270,2012-10-27 01:55:00
9:55 PM,23.7,19.9,85,30.34,10.0,West,6.9,-,N/A,,Overcast,280,2012-10-27 02:55:00
10:55 PM,24.6,19.6,81,30.33,10.0,WNW,5.8,-,N/A,,Overcast,300,2012-10-27 03:55:00
11:55 PM,25.3,19.6,79,30.32,10.0,West,4.6,-,N/A,,Overcast,280,2012-10-27 04:55:00